Regional Weather Roundup
Issued by NWS Newport/Morehead, NC

Home | Current Version | Previous Version | Text Only | Print | Product List | Glossary On
Versions: 1 2 3 4 5 6 7 8 9 10 11 12 13 14 15 16 17 18 19 20 21 22 23 24 25 26 27 28 29 30 31 32 33 34 35 36 37 38 39 40 41 42 43 44 45 46 47 48 49 50
000
ASUS42 KMHX 241226
RWRMHX
WEATHER ROUNDUP FOR EASTERN NORTH CAROLINA
NATIONAL WEATHER SERVICE NEWPORT/MOREHEAD CITY NC
700 AM EST THU JAN 24 2019

NOTE: "FAIR" INDICATES FEW OR NO CLOUDS BELOW 12,000 FEET
WITH NO SIGNIFICANT WEATHER AND/OR OBSTRUCTIONS TO VISIBILITY

NCZ015>017-031-032-045>047-102-103-241300-
NORTH COAST

CITY           SKY/WX    TMP DP  RH WIND       PRES   REMARKS
EDENTON        LGT RAIN  62  61  96 S18G25    29.71F
ELIZABETH CITY LGT RAIN  64  60  87 S16G32    29.70F
KITTY HAWK     CLOUDY    60  58  92 S14G21    29.73F
MANTEO         CLOUDY    52  51  97 S13       29.76F

$$

NCZ045>047-081-094-103-104-241300-
CENTRAL COAST

CITY           SKY/WX    TMP DP  RH WIND       PRES   REMARKS
FRISCO         LGT RAIN  63  59  87 S24G31    29.78F FOG

$$

NCZ095-097-098-100-101-241300-
SOUTHERN COAST

CITY           SKY/WX    TMP DP  RH WIND       PRES   REMARKS
BEAUFORT       LGT RAIN  63  63 100 S20G30    29.73F
CEDAR ISLAND   NOT AVBL
JACKSONVILLE   HVY RAIN  66  63  90 S16G32    29.68F FOG
PINEY ISLAND   NOT AVBL
WILMINGTON     HVY RAIN  65  63  93 S18G29    29.69F FOG


$$

NCZ011>013-027>030-043-044-078>080-089-090>093-098-241300-
COASTAL PLAIN

CITY           SKY/WX    TMP DP  RH WIND       PRES   REMARKS
AHOSKIE        HVY RAIN  62  62 100 S13G23    29.65F
CLINTON        CLOUDY    65  65 100 S8        29.65F
ELIZABETHTOWN  NOT AVBL
GOLDSBORO      LGT RAIN  65  63  94 S7        29.63F
GREENVILLE     HVY RAIN  64  63  94 S23G30    29.69F
HAVELOCK       NOT AVBL
KENANSVILLE    LGT RAIN  64  64 100 S3        29.67F FOG
KINSTON        HVY RAIN  64  64 100 S13G20      N/A
NEW BERN       HVY RAIN  64  63  96 S15G24    29.72F FOG
RICHLANDS      RAIN      64  64 100 S18G32    29.70F
ROCKY MOUNT    CLOUDY    63  63 100 S8        29.62F
WASHINGTON     HVY RAIN  64  62  94 S14G22    29.68F
WHITEVILLE     LGT RAIN  66  65  96 S14G22    29.67F

$$

AMZ130-135-150-152-154-156-158-170-250-252-270-ANZ085-086-088-633-658-670-241300-
MARINE OBSERVATIONS

STATION/POSITION TIME  TEMP    WIND        PRES    WAVE   SWELL
                       AIR SEA DIR/SP/G            HT/PER HT/PER
                 (UTC) (F)     (DEG/KT/KT) (MB)    (FT/S) (FT/S)
64 E VA BEACH    1150   58 50  180/ 23/ 29 1008.2   10/ 9   8/ 9
DUCK             1200   62 46  170/ 26/ 31 1005.5
2 E DUCK         1200      45                N/A     5/ 8   2/11
10 NE DUCK       1145      45                N/A     7/ 9   2/11
OREGON INLET     1200   56 45  160/ 15/ 21 1007.6
13E OREGON INLT  1146      47                N/A    11/ 9   8/ 9
HATTERAS CG      1200   62 52  160/ 20/ 24 1007.3
DIAMOND BUOY     NOT AVBL
CAPE LOOKOUT     1200          170/ 27/ 30 1007.1
BEAUFORT LAB     1200   62 50  180/ 24/ 27 1006.6
30 SE NEW RVR IN 1208   66 59  210/ 25/ 41 1008.0
30 SE NEW RVR IN 1200      59                N/A    14/ 9   3/11
27 SE WRIGHTSVLE 1208   64 58  200/ 25/ 31 1004.1
5 SE WRIGHTSVLE  1108   60 55  180/ 17/ 25 1005.7
27 SE WRIGHTSVL  1208   64 58  200/ 25/ 31 1004.1
FRYING PAN BUOY  1200          150/ 33/ 43 1007.1
225 S CAPE HAT   1210                      1015.7
41 SE CHARLESTON 1200          210/ 21/ 27 1007.6

$$




USA.gov is the U.S. government's official web portal to all federal, state and local government web resources and services.